Location: Alphen
(52.1351°N, 4.6549°E)
Time: 01:42:59
(UTC+00:00)

ATLAS CENTAUR R/B - Pass Details

Date: 27 January 2021
Orbit: 471 x 674 km, 64.6° (Epoch: 24 February)

Event Time Altitude Azimuth Distance (km) Brightness Sun altitude
Exits shadow 04:32:03 29° 114° (ESE) 885 2.8 -27.0°
Drops below altitude 10° 04:35:02 10° 60° (ENE) 1,646 4.5 -26.5°
Sets 04:37:21 0° 49° (NE) 2,540 5.5 -26.2°
